Olathe, KS

7:06 PM CDT on July 21, 2017 (GMT -0500)
Johnson County Executive

Weather History for KOJC - June, 2013

Change the Weather History Date:

Sunday, June 16, 2013

  Actual Average Record
Temperature  
Mean Temperature 75 °F 74 °F  
Max Temperature 84 °F 83 °F 96 °F (1978)
Min Temperature 66 °F 64 °F 51 °F (1969)
Degree Days  
Heating Degree Days 0 0  
Month to date heating degree days 14 6  
Since 1 June heating degree days 14 6  
Since 1 July heating degree days 5099 4932  
Cooling Degree Days 10 9  
Month to date cooling degree days 94 114  
Year to date cooling degree days 195 218  
Since 1 June cooling degree days 94 114  
Growing Degree Days 24 (Base 50)    
Moisture  
Dew Point 69 °F    
Average Humidity 85    
Maximum Humidity 100    
Minimum Humidity 69    
Precipitation  
Precipitation 0.00 in 0.21 in 1.57 in (1943)
Month to date precipitation 3.61 3.40  
Year to date precipitation 21.54 18.14  
Sea Level Pressure  
Sea Level Pressure 29.93 in    
Wind  
Wind Speed 4 mph (ESE)    
Max Wind Speed 10 mph    
Max Gust Speed 14 mph    
Visibility 7 miles    
Events      
T = Trace of Precipitation, MM = Missing Value Source: NWS Daily Summary

Daily Weather History Graph

Daily Weather History Graph

Search for Another Location

Airport or City:

Trip Planner

Search our weather history database for the weather conditions in past years. The results will help you decide how hot, cold, wet, or windy it might be!

Date:

Astronomy

Jun. 16, 2013 Rise Set
Actual Time 5:53 AM CDT 8:46 PM CDT
Civil Twilight 5:21 AM CDT 9:18 PM CDT
Nautical Twilight 4:40 AM CDT 9:58 PM CDT
Astronomical Twilight 3:54 AM CDT 10:45 PM CDT
Moon 1:26 PM CDT (6/16) 12:55 AM CDT (6/16)
Length of Visible Light 15h 57m
Length of Day
14h 53m
Waxing Crescent, 50% of the Moon is Illuminated
Jun 16
Waxing Crescent
Jun 16
First Quarter
Jun 23
Full
Jun 29
Last Quarter
Jul 8
New

Hourly Weather History & Observations

Time (CDT) Temp. Heat Index Dew Point Humidity Pressure Visibility Wind Dir Wind Speed Gust Speed Precip Events Conditions
12:53 AM 66.0 °F - 64.0 °F 93% 29.93 in 10.0 mi South 3.5 mph - N/A   Scattered Clouds
1:53 AM 66.9 °F - 64.9 °F 93% 29.91 in 10.0 mi SSW 3.5 mph - N/A   Mostly Cloudy
2:53 AM 66.9 °F - 64.9 °F 93% 29.92 in 10.0 mi SSW 4.6 mph - N/A   Scattered Clouds
3:53 AM 66.9 °F - 64.9 °F 93% 29.94 in 10.0 mi Calm Calm - N/A   Scattered Clouds
4:53 AM 66.9 °F - 66.0 °F 97% 29.93 in 8.0 mi SSW 3.5 mph - N/A   Clear
5:53 AM 66.0 °F - 64.9 °F 96% 29.93 in 4.0 mi Calm Calm - N/A   Partly Cloudy
6:07 AM 66.2 °F - 64.4 °F 94% 29.96 in 5.0 mi Calm Calm - N/A   Mostly Cloudy
6:44 AM 68.0 °F - 66.2 °F 94% 29.95 in 5.0 mi SE 3.5 mph - N/A   Overcast
6:53 AM 68.0 °F - 66.0 °F 93% 29.93 in 5.0 mi SSE 3.5 mph - 0.01 in   Overcast
7:53 AM 69.1 °F - 66.9 °F 93% 29.94 in 6.0 mi SSE 5.8 mph - N/A   Overcast
8:22 AM 69.8 °F - 68.0 °F 94% 29.96 in 5.0 mi South 3.5 mph - N/A   Overcast
8:53 AM 71.1 °F - 69.1 °F 93% 29.94 in 5.0 mi South 5.8 mph - N/A   Overcast
9:37 AM 71.6 °F - 69.8 °F 94% 29.96 in 5.0 mi South 6.9 mph - N/A   Overcast
9:53 AM 72.0 °F - 70.0 °F 93% 29.94 in 6.0 mi South 5.8 mph - N/A   Overcast
10:51 AM 75.2 °F - 71.6 °F 89% 29.97 in 6.0 mi Variable 3.5 mph - N/A   Overcast
10:53 AM 75.0 °F - 71.1 °F 87% 29.94 in 6.0 mi SW 4.6 mph - N/A   Overcast
11:19 AM 75.2 °F - 71.6 °F 89% 29.96 in 6.0 mi WSW 3.5 mph - N/A   Overcast
11:53 AM 75.9 °F - 70.0 °F 82% 29.94 in 8.0 mi Calm Calm - N/A   Overcast
12:53 PM 78.1 °F - 71.1 °F 79% 29.95 in 8.0 mi Calm Calm - N/A   Overcast
1:53 PM 79.0 °F - 72.0 °F 79% 29.94 in 7.0 mi East 5.8 mph - N/A   Mostly Cloudy
2:45 PM 78.8 °F - 71.6 °F 78% 29.96 in 6.0 mi NE 5.8 mph - N/A   Haze
2:53 PM 79.0 °F - 71.1 °F 77% 29.93 in 6.0 mi NNE 5.8 mph - N/A   Haze
3:53 PM 81.0 °F 84.9 °F 71.1 °F 72% 29.92 in 6.0 mi Calm Calm - N/A   Haze
4:53 PM 82.0 °F 86.3 °F 71.1 °F 69% 29.91 in 7.0 mi East 6.9 mph - N/A   Mostly Cloudy
5:53 PM 81.0 °F 84.9 °F 71.1 °F 72% 29.91 in 7.0 mi ENE 6.9 mph - N/A   Mostly Cloudy
6:28 PM 80.6 °F 84.6 °F 71.6 °F 74% 29.93 in 6.0 mi NE 6.9 mph - N/A   Haze
6:53 PM 79.0 °F - 71.1 °F 77% 29.89 in 6.0 mi ENE 10.4 mph - N/A   Haze
7:14 PM 78.8 °F - 69.8 °F 74% 29.91 in 6.0 mi NE 6.9 mph - N/A   Haze
7:26 PM 78.8 °F - 69.8 °F 74% 29.91 in 6.0 mi ENE 8.1 mph - N/A   Haze
7:36 PM 78.8 °F - 69.8 °F 74% 29.92 in 6.0 mi ENE 8.1 mph - N/A   Haze
7:53 PM 78.1 °F - 70.0 °F 76% 29.89 in 6.0 mi ENE 5.8 mph - N/A   Haze
8:53 PM 75.9 °F - 70.0 °F 82% 29.93 in 5.0 mi NNE 6.9 mph - N/A   Haze
9:53 PM 75.0 °F - 70.0 °F 84% 29.94 in 7.0 mi NNE 8.1 mph - N/A   Partly Cloudy
10:53 PM 73.9 °F - 70.0 °F 87% 29.96 in 8.0 mi NE 5.8 mph - N/A   Scattered Clouds
11:53 PM 73.0 °F - 69.1 °F 87% 29.94 in 9.0 mi ENE 4.6 mph - N/A   Clear